Yatton Keynell, United Kingdom

3:24 AM GMT on March 22, 2019 (GMT +0000)
Yatton Keynell

Weather History for 03740 - June, 1998

Change the Weather History Date:

Saturday, June 20, 1998

  Actual Average Record
Temperature  
Mean Temperature 70 °F -  
Max Temperature 78 °F 68 °F - ()
Min Temperature 62 °F 52 °F - ()
Cooling Degree Days 5    
Growing Degree Days 20 (Base 50)    
Moisture  
Dew Point 60 °F    
Average Humidity 72    
Maximum Humidity 94    
Minimum Humidity 57    
Precipitation  
Precipitation 0.00 in 0.07 in - ()
Sea Level Pressure  
Sea Level Pressure 30.04 in    
Wind  
Wind Speed 8 mph ()    
Max Wind Speed 18 mph    
Max Gust Speed 23 mph    
Visibility 6.2 miles    
Events Rain    
T = Trace of Precipitation, MM = Missing Value Source: Averaged Metar Reports

Daily Weather History Graph

Daily Weather History Graph

Search for Another Location

Airport or City:

Astronomy

Jun. 20, 1998 Rise Set
Actual Time 4:50 AM BST 9:28 PM BST
Civil Twilight 4:02 AM BST 10:16 PM BST
Nautical Twilight 2:47 AM BST 11:30 PM BST
Astronomical Twilight 1:41 AM BST 12:37 AM BST
Moon 2:44 AM BST (6/20) 4:52 PM BST (6/20)
Length of Visible Light 18h 13m
Length of Day
16h 38m
Waning Crescent, 18% of the Moon is Illuminated
Jun 20
Waning Crescent
Jun 24
New
Jul 1
First Quarter
Jul 9
Full
Jul 16
Last Quarter

Hourly Weather History & Observations

Time (BST) Temp. Dew Point Humidity Pressure Visibility Wind Dir Wind Speed Gust Speed Precip Events Conditions
12:50 AM 62.6 °F 53.6 °F 72% 30.12 in - SSE 5.8 mph - N/A   Clear
1:50 AM 62.6 °F 53.6 °F 72% 30.12 in - SSE 10.4 mph - N/A   Clear
2:50 AM 62.6 °F 55.4 °F 77% 30.09 in - SSE 9.2 mph - N/A   Clear
3:50 AM 62.6 °F 55.4 °F 77% 30.06 in - SE 6.9 mph - N/A   Clear
4:50 AM 62.6 °F 55.4 °F 77% 30.06 in - SSE 9.2 mph - N/A   Clear
5:50 AM 64.4 °F 55.4 °F 73% 30.06 in - South 8.1 mph - N/A   Clear
6:50 AM 66.2 °F 57.2 °F 73% 30.04 in - SSE 9.2 mph - N/A   Clear
7:50 AM 64.4 °F 59.0 °F 83% 30.12 in 6.2 mi West 10.4 mph - N/A Rain Light Rain
8:50 AM 62.6 °F 60.8 °F 94% 30.12 in 6.2 mi South 5.8 mph - N/A Rain Rain
9:50 AM 66.2 °F 62.6 °F 88% 30.09 in - Calm Calm - N/A   Clear
10:50 AM 68.0 °F 62.6 °F 83% 30.12 in - South 1.2 mph - N/A   Clear
11:50 AM 71.6 °F 64.4 °F 78% 30.09 in - ENE 3.5 mph - N/A   Clear
12:50 PM 73.4 °F 64.4 °F 73% 30.09 in - ENE 5.8 mph - N/A   Clear
1:50 PM 75.2 °F 66.2 °F 73% 30.06 in - ENE 10.4 mph - N/A   Clear
2:50 PM 77.0 °F 64.4 °F 65% 30.04 in - East 13.8 mph - N/A   Clear
3:50 PM 77.0 °F 62.6 °F 61% 30.01 in - East 17.3 mph - N/A   Clear
4:50 PM 77.0 °F 62.6 °F 61% 30.01 in 6.2 mi ESE 18.4 mph - N/A   Scattered Clouds
5:50 PM 78.8 °F 62.6 °F 57% 29.98 in - SE 16.1 mph - N/A   Clear
6:50 PM 75.2 °F 60.8 °F 61% 29.98 in - SE 15.0 mph - N/A   Clear
7:50 PM 75.2 °F 60.8 °F 61% 29.95 in - SE 15.0 mph - N/A   Clear
8:50 PM 73.4 °F 60.8 °F 65% 29.92 in - SE 13.8 mph - N/A   Clear
9:50 PM 71.6 °F 60.8 °F 69% 29.92 in - SE 13.8 mph - N/A   Clear
10:50 PM 71.6 °F 59.0 °F 64% 29.92 in - SSE 13.8 mph - N/A   Clear
11:50 PM 68.0 °F 59.0 °F 73% 29.92 in - South 11.5 mph 23.0 mph N/A   Clear